Weather History for KIWA - September, 2013

Change the Weather History Date:

Saturday, September 14, 2013

  Actual Average Record
Temperature  
Mean Temperature 88 °F -  
Max Temperature 98 °F 98 °F 111 °F (2000)
Min Temperature 78 °F 74 °F 66 °F (2005)
Cooling Degree Days 23    
Growing Degree Days 38 (Base 50)    
Moisture  
Dew Point 58 °F    
Average Humidity 39    
Maximum Humidity 57    
Minimum Humidity 19    
Precipitation  
Precipitation 0.00 in - - ()
Sea Level Pressure  
Sea Level Pressure 29.70 in    
Wind  
Wind Speed 4 mph (NE)    
Max Wind Speed 9 mph    
Max Gust Speed -    
Visibility 12 miles    
Events      
Averages and records for this station are not official NWS values.
T = Trace of Precipitation, MM = Missing Value Source: NWS Daily Summary

Daily Weather History Graph

Daily Weather History Graph

Search for Another Location

Airport or City:

Trip Planner

Search our weather history database for the weather conditions in past years. The results will help you decide how hot, cold, wet, or windy it might be!

Date:

Astronomy

Sep. 14, 2013 Rise Set
Actual Time 6:09 AM MST 6:33 PM MST
Civil Twilight 5:44 AM MST 6:58 PM MST
Nautical Twilight 5:15 AM MST 7:27 PM MST
Astronomical Twilight 4:45 AM MST 7:57 PM MST
Moon 3:07 PM MST (9/14) 12:57 AM MST (9/14)
Length of Visible Light 13h 13m
Length of Day
12h 24m
Waxing Gibbous, 73% of the Moon is Illuminated
Sep 14
Waxing Gibbous
Sep 19
Full
Sep 26
Last Quarter
Oct 4
New
Oct 11
First Quarter

Hourly Weather History & Observations

Time (MST) Temp. Heat Index Dew Point Humidity Pressure Visibility Wind Dir Wind Speed Gust Speed Precip Events Conditions
12:15 AM 82.4 °F 83.4 °F 62.6 °F 51% 29.70 in 10.0 mi Calm Calm - N/A   Clear
12:35 AM 82.4 °F 83.4 °F 62.6 °F 51% 29.70 in 10.0 mi East 5.8 mph - N/A   Clear
12:55 AM 82.4 °F 82.9 °F 60.8 °F 48% 29.70 in 10.0 mi East 6.9 mph - N/A   Clear
1:15 AM 82.4 °F 82.9 °F 60.8 °F 48% 29.70 in 10.0 mi ESE 4.6 mph - N/A   Clear
1:35 AM 82.4 °F 82.9 °F 60.8 °F 48% 29.70 in 10.0 mi East 4.6 mph - N/A   Clear
1:55 AM 82.4 °F 82.9 °F 60.8 °F 48% 29.70 in 10.0 mi East 4.6 mph - N/A   Scattered Clouds
2:15 AM 82.4 °F 82.9 °F 60.8 °F 48% 29.71 in 10.0 mi ENE 4.6 mph - N/A   Mostly Cloudy
2:35 AM 82.4 °F 82.9 °F 60.8 °F 48% 29.70 in 10.0 mi NE 4.6 mph - N/A   Scattered Clouds
2:55 AM 80.6 °F 81.5 °F 60.8 °F 51% 29.70 in 10.0 mi NNE 4.6 mph - N/A   Clear
3:15 AM 80.6 °F 81.5 °F 60.8 °F 51% 29.70 in 10.0 mi NE 4.6 mph - N/A   Clear
3:35 AM 80.6 °F 81.5 °F 60.8 °F 51% 29.70 in 10.0 mi ENE 4.6 mph - N/A   Clear
3:55 AM 80.6 °F 81.5 °F 60.8 °F 51% 29.70 in 10.0 mi ENE 6.9 mph - N/A   Clear
4:15 AM 80.6 °F 81.5 °F 60.8 °F 51% 29.70 in 10.0 mi ENE 4.6 mph - N/A   Clear
4:35 AM 80.6 °F 81.8 °F 62.6 °F 54% 29.71 in 10.0 mi ENE 3.5 mph - N/A   Clear
4:47 AM 80.6 °F 81.8 °F 62.6 °F 54% 29.71 in 20.0 mi ENE 3.5 mph - N/A   Partly Cloudy
4:55 AM 78.8 °F - 62.6 °F 57% 29.71 in 10.0 mi NE 3.5 mph - N/A   Clear
5:15 AM 78.8 °F - 62.6 °F 57% 29.71 in 10.0 mi ENE 4.6 mph - N/A   Clear
5:35 AM 78.8 °F - 60.8 °F 54% 29.72 in 10.0 mi Calm Calm - N/A   Clear
5:47 AM 80.6 °F 81.8 °F 62.6 °F 54% 29.72 in 20.0 mi Calm Calm - N/A   Partly Cloudy
6:47 AM 80.6 °F 81.8 °F 62.6 °F 54% 29.74 in 30.0 mi Calm Calm - N/A   Scattered Clouds
7:47 AM 84.2 °F 85.0 °F 62.6 °F 48% 29.74 in 30.0 mi Calm Calm - N/A   Scattered Clouds
8:47 AM 87.8 °F 87.6 °F 60.8 °F 40% 29.75 in 30.0 mi Calm Calm - N/A   Scattered Clouds
9:50 AM 93.2 °F 94.1 °F 62.6 °F 36% 29.76 in 30.0 mi East 9.2 mph - N/A   Scattered Clouds
10:47 AM 93.2 °F 93.3 °F 60.8 °F 34% 29.75 in 30.0 mi SE 6.9 mph - N/A   Scattered Clouds
11:47 AM 96.8 °F 96.2 °F 59.0 °F 28% 29.73 in 30.0 mi East 8.1 mph - N/A   Scattered Clouds
12:47 PM 98.6 °F 98.5 °F 59.0 °F 27% 29.71 in 30.0 mi SSE 6.9 mph - N/A   Scattered Clouds
1:47 PM 98.6 °F 97.6 °F 57.2 °F 25% 29.68 in 30.0 mi Variable 5.8 mph - N/A   Scattered Clouds
2:47 PM 98.6 °F 96.4 °F 53.6 °F 22% 29.66 in 30.0 mi Variable 4.6 mph - N/A   Mostly Cloudy
3:47 PM 98.6 °F 96.4 °F 53.6 °F 22% 29.65 in 30.0 mi Variable 3.5 mph - N/A   Mostly Cloudy
4:47 PM 98.6 °F - 51.8 °F 21% 29.64 in 30.0 mi WNW 5.8 mph - N/A   Mostly Cloudy
5:47 PM 98.6 °F - 51.8 °F 21% 29.64 in 30.0 mi West 4.6 mph - N/A   Mostly Cloudy
6:47 PM 96.8 °F - 48.2 °F 19% 29.65 in 20.0 mi Calm Calm - N/A   Scattered Clouds
7:47 PM 93.2 °F 91.3 °F 55.4 °F 28% 29.68 in 20.0 mi North 5.8 mph - N/A   Scattered Clouds
7:55 PM 93.2 °F 90.8 °F 53.6 °F 26% 29.68 in 10.0 mi North 8.1 mph - N/A   Clear
8:15 PM 93.2 °F 90.8 °F 53.6 °F 26% 29.70 in 10.0 mi North 4.6 mph - N/A   Clear
8:35 PM 91.4 °F 89.1 °F 53.6 °F 28% 29.70 in 10.0 mi North 4.6 mph - N/A   Clear
8:47 PM 91.4 °F 89.4 °F 55.4 °F 29% 29.70 in 20.0 mi NW 5.8 mph - N/A   Partly Cloudy
8:55 PM 87.8 °F 85.7 °F 53.6 °F 31% 29.70 in 10.0 mi NNW 3.5 mph - N/A   Clear
9:15 PM 89.6 °F 87.3 °F 53.6 °F 29% 29.70 in 10.0 mi North 3.5 mph - N/A   Clear
9:35 PM 87.8 °F - 51.8 °F 29% 29.70 in 10.0 mi North 4.6 mph - N/A   Clear
9:47 PM 87.8 °F 85.7 °F 53.6 °F 31% 29.70 in 20.0 mi NNE 4.6 mph - N/A   Partly Cloudy
9:55 PM 87.8 °F 85.7 °F 53.6 °F 31% 29.70 in 10.0 mi NNE 4.6 mph - N/A   Clear
10:15 PM 87.8 °F 85.7 °F 53.6 °F 31% 29.71 in 10.0 mi Calm Calm - N/A   Clear
10:35 PM 84.2 °F 83.0 °F 55.4 °F 37% 29.71 in 10.0 mi South 4.6 mph - N/A   Clear
10:52 PM 86.0 °F 84.9 °F 57.2 °F 37% 29.72 in 20.0 mi Calm Calm - N/A   Partly Cloudy
10:55 PM 86.0 °F 84.5 °F 55.4 °F 35% 29.71 in 10.0 mi Calm Calm - N/A   Clear
11:15 PM 84.2 °F 83.0 °F 55.4 °F 37% 29.71 in 10.0 mi Calm Calm - N/A   Clear
11:35 PM 84.2 °F 83.0 °F 55.4 °F 37% 29.71 in 10.0 mi Calm Calm - N/A   Clear
11:50 PM 84.2 °F 83.5 °F 57.2 °F 40% 29.72 in 20.0 mi Calm Calm - N/A   Partly Cloudy
11:55 PM 82.4 °F 82.0 °F 57.2 °F 42% 29.72 in 10.0 mi Calm Calm - N/A   Clear